Weather History for KCOS - September, 2012

Change the Weather History Date:

Sunday, September 9, 2012

  Actual Average Record
Temperature  
Mean Temperature 64 °F 64 °F  
Max Temperature 80 °F 77 °F 92 °F (1979)
Min Temperature 47 °F 50 °F 30 °F (1941)
Degree Days  
Heating Degree Days 1 3  
Month to date heating degree days 9 22  
Since 1 July heating degree days 14 53  
Cooling Degree Days 0 2  
Month to date cooling degree days 43 20  
Year to date cooling degree days 859 438  
Growing Degree Days 13 (Base 50)    
Moisture  
Dew Point 29 °F    
Average Humidity 35    
Maximum Humidity 58    
Minimum Humidity 11    
Precipitation  
Precipitation 0.00 in 0.05 in 1.32 in (1995)
Month to date precipitation 0.04 0.51  
Year to date precipitation 6.31 14.30  
Snow  
Snow 0.00 in 0.00 in T in (1962)
Month to date snowfall 0.0 0.0  
Since 1 July snowfall T 0.0  
Since 1 September snowfall 0.0 0.0  
Snow Depth 0.00 in    
Sea Level Pressure  
Sea Level Pressure 30.12 in    
Wind  
Wind Speed 9 mph (SE)    
Max Wind Speed 23 mph    
Max Gust Speed 29 mph    
Visibility 10 miles    
Events      
T = Trace of Precipitation, MM = Missing Value Source: NWS Daily Summary

Daily Weather History Graph

Daily Weather History Graph

Search for Another Location

Airport or City:

Trip Planner

Search our weather history database for the weather conditions in past years. The results will help you decide how hot, cold, wet, or windy it might be!

Date:

Astronomy

Sep. 09, 2012 Rise Set
Actual Time 6:35 AM MDT 7:15 PM MDT
Civil Twilight 6:08 AM MDT 7:42 PM MDT
Nautical Twilight 5:36 AM MDT 8:14 PM MDT
Astronomical Twilight 5:03 AM MDT 8:46 PM MDT
Moon 12:09 AM MDT (9/9) 3:00 PM MDT (9/9)
Length of Visible Light 13h 34m
Length of Day
12h 40m
Last Quarter, 39% of the Moon is Illuminated
Sep 9
Last Quarter
Sep 15
New
Sep 22
First Quarter
Sep 29
Full
Oct 8
Last Quarter

Hourly Weather History & Observations

Time (MDT) Temp. Dew Point Humidity Pressure Visibility Wind Dir Wind Speed Gust Speed Precip Events Conditions
12:54 AM 53.1 °F 30.9 °F 43% 30.20 in 10.0 mi North 4.6 mph - N/A   Clear
1:54 AM 52.0 °F 32.0 °F 47% 30.19 in 10.0 mi North 5.8 mph - N/A   Clear
2:54 AM 50.0 °F 32.0 °F 50% 30.19 in 10.0 mi NE 5.8 mph - N/A   Clear
3:54 AM 48.9 °F 33.1 °F 54% 30.18 in 10.0 mi NNE 5.8 mph - N/A   Clear
4:54 AM 48.0 °F 32.0 °F 54% 30.19 in 10.0 mi NNE 4.6 mph - N/A   Clear
5:54 AM 48.0 °F 33.1 °F 56% 30.19 in 10.0 mi NNE 4.6 mph - N/A   Clear
6:54 AM 46.9 °F 32.0 °F 56% 30.22 in 10.0 mi Calm Calm - N/A   Clear
7:54 AM 57.9 °F 36.0 °F 44% 30.20 in 10.0 mi North 3.5 mph - N/A   Clear
8:54 AM 66.0 °F 34.0 °F 30% 30.18 in 10.0 mi Calm Calm - N/A   Clear
9:54 AM 68.0 °F 35.6 °F 30% 30.39 in 10.0 mi SSE 8.1 mph - N/A   Clear
10:54 AM 72.0 °F 35.1 °F 26% 30.17 in 10.0 mi South 15.0 mph - N/A   Clear
11:54 AM 73.9 °F 34.0 °F 23% 30.15 in 10.0 mi SSE 16.1 mph 25.3 mph N/A   Clear
12:54 PM 75.9 °F 33.1 °F 21% 30.12 in 10.0 mi SSE 16.1 mph 21.9 mph N/A   Clear
1:54 PM 79.0 °F 28.9 °F 16% 30.08 in 10.0 mi South 17.3 mph 26.5 mph N/A   Clear
2:54 PM 79.0 °F 28.9 °F 16% 30.06 in 10.0 mi South 21.9 mph 28.8 mph N/A   Clear
3:54 PM 80.1 °F 26.1 °F 14% 30.04 in 10.0 mi South 12.7 mph 26.5 mph N/A   Partly Cloudy
4:54 PM 79.0 °F 24.1 °F 13% 30.04 in 10.0 mi South 20.7 mph - N/A   Clear
5:54 PM 78.1 °F 19.9 °F 11% 30.04 in 10.0 mi South 18.4 mph - N/A   Clear
6:54 PM 73.0 °F 18.0 °F 12% 30.05 in 10.0 mi SSE 10.4 mph - N/A   Clear
7:54 PM 70.0 °F 21.0 °F 16% 30.02 in 10.0 mi SE 9.2 mph - N/A   Clear
8:54 PM 64.9 °F 23.0 °F 20% 30.02 in 10.0 mi ESE 6.9 mph - N/A   Clear
9:54 PM 64.0 °F 25.0 °F 23% 30.01 in 10.0 mi South 4.6 mph - N/A   Clear
10:54 PM 64.0 °F 26.1 °F 24% 30.00 in 10.0 mi SSE 3.5 mph - N/A   Clear
11:54 PM 60.1 °F 27.0 °F 28% 29.99 in 10.0 mi East 4.6 mph - N/A   Clear